Hourly Weather Roundup
Issued by NWS Central Illinois

Home | Current Version | Previous Version | Text Only | Print | Product List | Glossary On
Versions: 1 2 3 4 5 6 7 8 9 10 11 12 13 14 15 16 17 18 19 20 21 22 23 24 25 26 27 28 29 30 31 32 33 34 35 36 37 38 39 40 41 42 43 44 45 46 47 48 49 50
000
NZUS43 KILX 191810
HWRILX

Area Weather Roundup
National Weather Service Lincoln IL
100 PM CDT THU OCT 19 2017

NOTE:  "FAIR" indicates few or no clouds below 12,000 feet, with
       no sigificant weather and/or obstructions to visibility.


CITY           SKY/WX    TMP DP  RH WIND       PRES   REMARKS
Bloomington    FAIR      72  52  49 CALM      30.19F
6HR MIN TEMP:  51; 6HR MAX TEMP:  72;

Champaign      FAIR      74  50  42 SW5       30.18F
6HR MIN TEMP:  47; 6HR MAX TEMP:  75;

Danville       FAIR      70  51  49 W5        30.16F
6HR MIN TEMP:  48; 6HR MAX TEMP:  70;

Decatur        FAIR      72  51  47 SW5       30.18F
6HR MIN TEMP:  51; 6HR MAX TEMP:  72;

Effingham      FAIR      75  52  43 S5        30.21F
6HR MIN TEMP:  48; 6HR MAX TEMP:  75;

Flora          FAIR      75  52  43 W3        30.21F
6HR MIN TEMP:  47; 6HR MAX TEMP:  75;

Galesburg      FAIR      77  60  56 SE8       30.17F
6HR MIN TEMP:  42; 6HR MAX TEMP:  77; 6HR PCP:  0.10;

Jacksonville   FAIR      73  52  48 S5        30.17F
6HR MIN TEMP:  52; 6HR MAX TEMP:  73;

Lacon          FAIR      71  42  36 SE5       30.17F
6HR MIN TEMP:  47; 6HR MAX TEMP:  71;

Lawrenceville  FAIR      72  53  51 VRB3      30.21F
6HR MIN TEMP:  48; 6HR MAX TEMP:  72;

Litchfield     FAIR      73  51  46 S6        30.18F
6HR MIN TEMP:  47; 6HR MAX TEMP:  73;

$$


CITY           SKY/WX    TMP DP  RH WIND       PRES   REMARKS
Lincoln        FAIR      73  53  50 CALM      30.17F
6HR MIN TEMP:  45; 6HR MAX TEMP:  73;

Macomb         FAIR      73  50  45 S5        30.18F
Mattoon        FAIR      74  53  48 VRB3      30.18F
6HR MIN TEMP:  52; 6HR MAX TEMP:  74;

Mt Carmel AP   FAIR      73  50  43 SW6       30.21F
6HR MIN TEMP:  49; 6HR MAX TEMP:  73;

Olney-Noble AP FAIR      73  46  37 CALM      30.21F
Paris AP       FAIR      74  52  46 SW3       30.19F
6HR MIN TEMP:  50; 6HR MAX TEMP:  74;

Peoria         FAIR      70  52  52 E3        30.18F
6HR MIN TEMP:  48; 6HR MAX TEMP:  70;

Pontiac        FAIR      70  43  37 NE5       30.19F
6HR MIN TEMP:  50; 6HR MAX TEMP:  70;

Rantoul        FAIR      72  53  51 CALM      30.18F
6HR MIN TEMP:  52; 6HR MAX TEMP:  72;

Robinson       FAIR      72  51  48 SW6       30.21F
6HR MIN TEMP:  47; 6HR MAX TEMP:  73;

Springfield    FAIR      75  55  49 VRB5      30.17F
6HR MIN TEMP:  54; 6HR MAX TEMP:  75;

Taylorville    FAIR      74  51  44 SE5       30.18F
6HR MIN TEMP:  48; 6HR MAX TEMP:  74;

$$

...REGIONAL REPORTS...


CITY           SKY/WX    TMP DP  RH WIND       PRES   REMARKS
Chicago O`Hare PTSUNNY   69  25  19 NE6       30.18F
Kankakee       FAIR      70  35  28 N3        30.19F
Moline         FAIR      71  37  28 E9        30.16F
Mount Sterling FAIR      72  52  49 SE5       30.16S
Mount Vernon   FAIR      76  53  44 SW6       30.21F
Pittsfield     FAIR      74  54  48 S5        30.17F
Quincy         FAIR      72  51  47 VRB7      30.15F
Rockford       PTSUNNY   69  29  22 CALM      30.18F
$$


CITY           SKY/WX    TMP DP  RH WIND       PRES   REMARKS
Burlington     FAIR      71  54  54 S6        30.15F
Cedar Rapids   FAIR      69  31  24 SE10      30.15F
Des Moines     PTSUNNY   72  43  35 E9        30.11F
Kirksville     FAIR      72  56  57 SE8       30.14F
Ottumwa        FAIR      71  52  50 S9        30.12F
St Louis       FAIR      75  50  41 SW7       30.19F
$$


CITY           SKY/WX    TMP DP  RH WIND       PRES   REMARKS
Terre Haute    FAIR      70  51  51 MISG      30.20F
Evansville     FAIR      72  50  45 VRB3      30.23F
Indianapolis   FAIR      71  51  49 S9        30.19F
Lafayette      FAIR      69  53  56 VRB3      30.18F
Madison        PTSUNNY   64  34  32 S5        30.16F
Milwaukee      PTSUNNY   67  29  24 VRB5      30.18S
$$






USA.gov is the U.S. government's official web portal to all federal, state and local government web resources and services.